TimeCDT,TemperatureF,Dew PointF,Humidity,Sea Level PressureIn,VisibilityMPH,Wind Direction,Wind SpeedMPH,Gust SpeedMPH,PrecipitationIn,Events,Conditions,WindDirDegrees,DateUTC
12:52 AM,60.1,34.0,38,29.97,10.0,SSW,5.8,-,N/A,,Clear,200,2012-09-15 05:52:00
1:52 AM,60.8,33.8,36,29.97,10.0,South,4.6,-,N/A,,Clear,180,2012-09-15 06:52:00
2:52 AM,60.8,33.8,36,29.95,10.0,SSE,5.8,-,N/A,,Clear,160,2012-09-15 07:52:00
3:52 AM,60.1,33.1,36,29.91,10.0,South,6.9,-,N/A,,Clear,170,2012-09-15 08:52:00
4:52 AM,53.1,34.0,48,29.91,10.0,South,3.5,-,N/A,,Clear,190,2012-09-15 09:52:00
5:52 AM,50.0,35.1,57,29.91,10.0,SSW,4.6,-,N/A,,Clear,210,2012-09-15 10:52:00
6:52 AM,48.0,34.0,58,29.91,10.0,SW,4.6,-,N/A,,Clear,220,2012-09-15 11:52:00
7:52 AM,48.0,35.1,61,29.93,10.0,SSW,6.9,-,N/A,,Clear,200,2012-09-15 12:52:00
8:52 AM,54.0,36.0,51,29.94,10.0,SSW,4.6,-,N/A,,Clear,210,2012-09-15 13:52:00
9:52 AM,64.9,34.0,32,29.93,10.0,WSW,4.6,-,N/A,,Clear,240,2012-09-15 14:52:00
10:52 AM,72.0,28.0,20,29.93,10.0,NNW,8.1,-,N/A,,Clear,340,2012-09-15 15:52:00
11:52 AM,75.0,30.0,19,29.94,10.0,NNW,8.1,-,N/A,,Clear,340,2012-09-15 16:52:00
12:52 PM,79.0,32.0,18,29.95,10.0,North,10.4,-,N/A,,Clear,350,2012-09-15 17:52:00
1:52 PM,82.9,30.9,15,29.94,10.0,North,18.4,24.2,N/A,,Clear,360,2012-09-15 18:52:00
2:52 PM,80.6,30.2,16,29.97,10.0,North,16.1,-,N/A,,Clear,360,2012-09-15 19:52:00
3:52 PM,82.9,28.9,14,29.95,10.0,NNE,13.8,-,N/A,,Clear,20,2012-09-15 20:52:00
4:52 PM,82.0,30.9,16,29.96,10.0,North,13.8,-,N/A,,Clear,10,2012-09-15 21:52:00
5:52 PM,80.1,33.1,18,29.97,10.0,Variable,5.8,-,N/A,,Clear,0,2012-09-15 22:52:00
6:52 PM,79.0,35.1,20,29.97,10.0,NNE,8.1,-,N/A,,Clear,30,2012-09-15 23:52:00
7:52 PM,70.0,34.0,27,29.99,10.0,North,6.9,-,N/A,,Clear,10,2012-09-16 00:52:00
8:52 PM,69.1,35.1,29,30.00,10.0,NNE,8.1,-,N/A,,Clear,20,2012-09-16 01:52:00
9:52 PM,66.9,36.0,32,30.02,10.0,North,10.4,-,N/A,,Clear,10,2012-09-16 02:52:00
10:52 PM,64.9,32.0,29,30.03,10.0,North,9.2,-,N/A,,Clear,10,2012-09-16 03:52:00
11:52 PM,63.0,30.0,29,30.03,10.0,NNE,11.5,-,N/A,,Clear,20,2012-09-16 04:52:00